Home > Weather > Albury > Past weeks

Flag for Australia Past Weather in Albury, New South Wales, Australia — Yesterday and Last 2 Weeks

Now
52 °F

Scattered clouds.


Feels Like: 51 °F
Forecast: 46 / 61 °F
Wind: 5 mph from North

Location: Albury Airport

Current Time: Aug 30, 2016 at 9:38:16 AM

Latest Report: Aug 30, 2016 at 9:00 AM


Visibility: N/A

Pressure: 30.24 "Hg

Humidity: 82%

Dew Point: 46 °F

Location of AlburyLocation

Past Weather in Albury — Graph

°F

Albury Temperature Yesterday

Maximum temperature yesterday: 63 °F (at 2:00 PM)
Minimum temperature yesterday: 39 °F (at 6:00 AM)
Average temperature yesterday: 50 °F

High & Low Weather Summary for the Past Weeks

 TemperatureHumidityPressure
High66 °F (Aug 18, 3:00 PM)100% (Aug 15, 8:00 AM)30.48 "Hg (Aug 15, 8:00 AM)
Low34 °F (Aug 26, 4:00 AM)47% (Aug 27, 1:00 PM)29.80 "Hg (Aug 19, 2:00 PM)
Average49 °F84%30.10 "Hg
* Reported Aug 15 8:00 AM — Aug 30 8:00 AM, Albury, Weather by CustomWeather, © 2016

Note: Actual official high and low records may vary slightly from our data, if they occured in-between our weather recording intervals... More about our weather records

Advertising

Albury Weather History for the Previous 24 Hours

Scroll right to see more
 ConditionsComfort  
Time TempWeatherWind HumidityBarometerVisibility
8:00 AM
Tue, Aug 30
48 °FPartly sunny.No wind94%30.21 "HgN/A
7:00 AM48 °FSunny.No wind87%30.24 "HgN/A
6:00 AM48 °FSunny.5 mph94%30.21 "HgN/A
5:00 AM46 °FClear.3 mph93%30.21 "HgN/A
4:00 AM46 °FClear.3 mph93%30.21 "HgN/A
3:00 AM48 °FPassing clouds.No wind87%30.21 "HgN/A
2:00 AM48 °FClear.3 mph87%30.21 "HgN/A
1:00 AM50 °FClear.No wind82%30.21 "HgN/A
12:00 AM48 °FClear.1 mph94%30.24 "HgN/A
11:00 PM
Mon, Aug 29
48 °FClear.No wind94%30.24 "HgN/A
10:00 PM48 °FPassing clouds.5 mph94%30.24 "HgN/A
9:00 PM48 °FClear.No wind87%30.24 "HgN/A
8:00 PM50 °FClear.2 mph82%30.24 "HgN/A
7:00 PM54 °FClear.2 mph72%30.21 "HgN/A
6:00 PM57 °FPassing clouds.5 mph63%30.21 "HgN/A
5:00 PM59 °FOvercast.6 mph59%30.21 "HgN/A
4:00 PM61 °FOvercast.8 mph55%30.24 "HgN/A
3:00 PM63 °FSunny.6 mph49%30.21 "HgN/A
2:00 PM63 °FPartly sunny.3 mph52%30.24 "HgN/A
1:00 PM61 °FScattered clouds.5 mph55%30.24 "HgN/A
12:00 PM59 °FSunny.5 mph59%30.27 "HgN/A
11:00 AM57 °FSunny.7 mph67%30.30 "HgN/A
10:00 AM52 °FPartly sunny.5 mph82%30.33 "HgN/A
9:00 AM50 °FPartly sunny.No wind88%30.33 "HgN/A
Weather by CustomWeather, © 2016

See weather overviewHow to use our weather pages